Regional Weather Roundup
Issued by NWS

Home | Current Version | Previous Version | Graphics & Text | Print | Product List | Glossary On
Versions: 1 2 3 4 5 6 7 8 9 10 11 12 13 14 15 16 17 18 19 20 21 22 23 24 25 26 27 28 29 30 31 32 33 34 35 36 37 38 39 40 41 42 43 44 45 46 47 48 49 50
000
ASUS43 KLMK 221002
RWRKY
KENTUCKY REGIONAL WEATHER ROUNDUP
NATIONAL WEATHER SERVICE LOUISVILLE KY
600 AM EDT WED MAR 22 2017

NOTE "FAIR" INDICATES FEW OR NO CLOUDS BELOW 12,000 FEET
WITH NO SIGNIFICANT WEATHER AND/OR OBSTRUCTIONS TO VISIBILITY.

KYZ001>023-026-027-061>063-070>075-221100-
WESTERN AND SOUTH CENTRAL KENTUCKY

CITY           SKY/WX    TMP DP  RH WIND       PRES   REMARKS
PADUCAH        CLOUDY    47  34  60 NE14      30.28R
HENDERSON      PTCLDY    28  27  93 NE10      30.32R WCI  19
OWENSBORO      CLOUDY    41  23  48 NE13      30.33R
HOPKINSVILLE   NOT AVBL
BOWLING GREEN  PTCLDY    46  27  47 NE15      30.28R
GLASGOW        NOT AVBL
$$

KYZ024-025-028>034-038-045-046-053-221100-
NORTH CENTRAL KENTUCKY

CITY           SKY/WX    TMP DP  RH WIND       PRES   REMARKS
LOUISVILLE/SDF PTCLDY    39  19  44 NE14G23   30.34R WCI  31
LOUISVILLE/LOU PTCLDY    39  20  46 NE12G22   30.34R WCI  32
FORT KNOX      PTCLDY    38  22  51 N10G22    30.29R WCI  31
$$

KYZ035>037-039>044-047>052-055>060-089>105-221100-
NORTHEAST KENTUCKY

CITY           SKY/WX    TMP DP  RH WIND       PRES   REMARKS
LEXINGTON      PTCLDY    35  24  64 NE14      30.30R WCI  26
COVINGTON      CLEAR     32  19  58 NE16G24   30.33R WCI  21
FRANKFORT      MOCLDY    37  21  52 N10       30.31R WCI  30
$$

KYZ054-064>069-076>088-106>120-221100-
SOUTHEAST KENTUCKY

CITY           SKY/WX    TMP DP  RH WIND       PRES   REMARKS
JACKSON        CLEAR     37  23  56 VRB6      30.24R WCI  32
LONDON         CLEAR     40  22  48 N8G17     30.23R WCI  34
SOMERSET       PTCLDY    39  23  52 N18G26    30.26R WCI  30
MIDDLESBORO    CLOUDY    47  33  58 N12G18    30.19R
MONTICELLO     SUNNY     43  28  55 N21G29    30.25R
$$





USA.gov is the U.S. government's official web portal to all federal, state and local government web resources and services.